NS0L Weather Reports


Display with metric or nautical units.
time (UTC)temp
F
wind
direction
speed
MPH
gust
MPH
rain 1hr
in
rain 24hr
in
rain mn
in
humidity
%
barometer
mb
20240221081530 31 0 0.0 0.0 0.00 0.00 0.00 56 1012.7
20240221080035 32 0 0.0 0.0 0.00 0.00 0.00 55 1012.5
20240221074534 33 0 0.0 1.0 0.00 0.00 0.00 56 1012.5
20240221073035 32 0 0.0 0.0 0.00 0.00 0.00 56 1012.4
20240221071546 33 0 0.0 0.0 0.00 0.00 0.00 56 1012.7
20240221070043 32 0 0.0 0.0 0.00 0.00 0.00 57 1012.7
20240221064527 32 0 0.0 0.0 0.00 0.00 0.00 58 1012.8
20240221063026 31 0 0.0 0.0 0.00 0.00 0.00 57 1012.9
20240221061532 31 0 0.0 0.0 0.00 0.00 0.00 58 1013.1
20240221060033 31 0 0.0 0.0 0.00 0.00 0.00 59 1013.3
20240221054530 30 0 0.0 0.0 0.00 0.00 0.00 59 1013.1
20240221053030 30 0 0.0 0.0 0.00 0.00 0.00 58 1013.4
20240221051530 31 0 0.0 0.0 0.00 0.00 0.00 58 1013.7
20240221050028 31 0 0.0 0.0 0.00 0.00 0.00 59 1013.6
20240221044525 31 0 0.0 0.0 0.00 0.00 0.00 59 1014.0
20240221043026 31 0 0.0 0.0 0.00 0.00 0.00 59 1014.0
20240221041531 31 0 0.0 0.0 0.00 0.00 0.00 59 1014.1
20240221040026 31 0 0.0 0.0 0.00 0.00 0.00 59 1014.3
20240221034529 32 0 0.0 0.0 0.00 0.00 0.00 59 1014.2
20240221033041 32 0 0.0 0.0 0.00 0.00 0.00 59 1014.3
20240221031532 32 0 0.0 0.0 0.00 0.00 0.00 59 1014.3
20240221030033 32 0 0.0 0.0 0.00 0.00 0.00 59 1014.3
20240221024531 33 0 0.0 0.0 0.00 0.00 0.00 58 1014.3
20240221023030 33 0 0.0 0.0 0.00 0.00 0.00 58 1014.2
20240221021531 34 0 0.0 0.0 0.00 0.00 0.00 59 1014.3
20240221020028 34 0 0.0 0.0 0.00 0.00 0.00 59 1014.4
20240221014542 34 0 0.0 0.0 0.00 0.00 0.00 58 1014.6
20240221013028 34 0 0.0 0.0 0.00 0.00 0.00 58 1014.6
20240221011528 35 0 0.0 0.0 0.00 0.00 0.00 58 1014.9
20240221010041 36 0 0.0 0.0 0.00 0.00 0.00 57 1015.0
20240221004527 36 0 0.0 0.0 0.00 0.00 0.00 58 1014.9
20240221003036 37 0 0.0 0.0 0.00 0.00 0.00 57 1014.7
20240221001529 38 0 0.0 0.0 0.00 0.00 0.00 54 1014.9
20240221000034 40 0 0.0 0.0 0.00 0.00 0.00 53 1014.6
20240220234537 42 0 0.0 0.0 0.00 0.00 0.00 50 1014.5
20240220233038 44 0 0.0 0.0 0.00 0.00 0.00 48 1014.3
20240220231530 45 0 0.0 0.0 0.00 0.00 0.00 47 1014.1
20240220230038 46 0 0.0 1.0 0.00 0.00 0.00 45 1014.3
20240220224536 46 216 0.0 1.0 0.00 0.00 0.00 44 1014.2
20240220223032 47 187 0.0 3.0 0.00 0.00 0.00 41 1014.1
20240220221527 48 248 0.0 6.0 0.00 0.00 0.00 41 1014.2
20240220220032 48 238 0.0 2.0 0.00 0.00 0.00 41 1014.2
20240220214528 48 266 1.0 4.0 0.00 0.00 0.00 40 1014.3
20240220213028 48 248 1.0 6.0 0.00 0.00 0.00 43 1014.3
20240220211528 48 274 2.0 8.0 0.00 0.00 0.00 42 1014.3
20240220210028 48 229 1.0 4.0 0.00 0.00 0.00 42 1014.4
20240220204531 48 239 1.0 6.0 0.00 0.01 0.00 44 1014.5
20240220203037 48 228 2.0 7.0 0.00 0.01 0.00 43 1014.6
20240220201535 47 255 2.0 6.0 0.00 0.01 0.00 45 1014.5
20240220200029 47 248 2.0 5.0 0.00 0.01 0.00 45 1014.4
20240220194533 46 237 2.0 7.0 0.00 0.02 0.00 46 1014.4
20240220193026 45 252 1.0 7.0 0.00 0.02 0.00 47 1014.5
20240220191532 44 239 2.0 7.0 0.00 0.02 0.00 47 1014.8
20240220190029 44 253 2.0 8.0 0.00 0.02 0.00 48 1014.9
20240220184532 43 259 2.0 6.0 0.00 0.02 0.00 49 1015.1
20240220183036 43 200 2.0 6.0 0.00 0.02 0.00 49 1015.2
20240220181527 42 241 2.0 6.0 0.00 0.02 0.00 49 1015.3
20240220180025 41 284 1.0 5.0 0.00 0.02 0.00 50 1015.5
20240220174525 41 256 2.0 5.0 0.00 0.02 0.00 50 1015.6
20240220173027 40 243 1.0 6.0 0.00 0.02 0.00 51 1015.5
20240220171527 39 254 2.0 7.0 0.00 0.02 0.00 51 1015.7
20240220170039 39 240 1.0 4.0 0.00 0.02 0.00 51 1015.7
20240220164539 39 150 0.0 4.0 0.00 0.02 0.00 51 1015.8
20240220163031 38 248 2.0 6.0 0.00 0.02 0.00 51 1016.0
20240220161530 38 170 1.0 4.0 0.00 0.02 0.00 51 1015.8
20240220160030 37 191 1.0 4.0 0.00 0.02 0.00 52 1015.8
20240220154535 36 0 0.0 5.0 0.00 0.02 0.00 53 1015.9
20240220153029 35 242 1.0 4.0 0.00 0.02 0.00 53 1015.9
20240220151542 34 236 1.0 4.0 0.00 0.02 0.00 54 1015.6
20240220150027 33 255 1.0 4.0 0.00 0.02 0.00 54 1015.8
20240220144529 32 142 1.0 4.0 0.00 0.02 0.00 55 1015.7
20240220143043 31 265 0.0 2.0 0.00 0.02 0.00 56 1015.4
20240220141532 30 226 0.0 2.0 0.00 0.02 0.00 58 1015.4
20240220140031 29 0 0.0 1.0 0.00 0.02 0.00 59 1015.1
20240220134527 28 0 0.0 0.0 0.00 0.02 0.00 59 1015.0
20240220133042 28 0 0.0 0.0 0.00 0.02 0.00 59 1014.9
20240220131533 28 0 0.0 0.0 0.00 0.02 0.00 59 1014.9
20240220130030 29 0 0.0 1.0 0.00 0.02 0.00 59 1014.6
20240220124529 29 0 0.0 1.0 0.00 0.02 0.00 60 1014.5
20240220123037 30 219 0.0 2.0 0.00 0.02 0.00 60 1014.5
20240220121547 30 0 0.0 1.0 0.00 0.02 0.00 59 1014.4
20240220120035 31 130 0.0 1.0 0.00 0.02 0.00 59 1014.4
20240220114531 32 139 0.0 1.0 0.00 0.02 0.00 58 1014.5
20240220113029 32 0 0.0 1.0 0.00 0.02 0.00 58 1014.5
20240220111526 33 161 0.0 3.0 0.00 0.02 0.00 57 1014.3
20240220110033 33 0 0.0 0.0 0.00 0.02 0.00 57 1014.2
20240220104527 34 167 0.0 2.0 0.00 0.02 0.00 56 1014.0
20240220103033 35 0 0.0 1.0 0.00 0.02 0.00 54 1014.0
20240220101526 35 137 1.0 3.0 0.00 0.02 0.00 53 1013.8
20240220100041 36 233 1.0 4.0 0.00 0.02 0.00 53 1013.7
20240220094530 37 189 0.0 4.0 0.00 0.02 0.00 52 1013.7
20240220093032 37 210 1.0 4.0 0.00 0.02 0.00 52 1013.6
20240220091529 36 122 2.0 6.0 0.00 0.02 0.00 52 1013.7
20240220090030 36 146 2.0 4.0 0.00 0.02 0.00 53 1013.8
20240220084532 35 163 1.0 3.0 0.00 0.02 0.00 54 1013.8
20240220083031 35 148 0.0 2.0 0.00 0.02 0.00 54 1013.9